Weather History for Galesburg, IL

Change the Weather History Date:

Tuesday, July 30, 2013

  Actual Average Record
Temperature  
Mean Temperature 65 °F -  
Max Temperature 68 °F 82 °F 99 °F (1955)
Min Temperature 62 °F 63 °F 46 °F (1971)
Growing Degree Days 15 (Base 50)    
Moisture  
Dew Point 62 °F    
Average Humidity 89    
Maximum Humidity 97    
Minimum Humidity 68    
Precipitation  
Precipitation 0.06 in - - ()
Sea Level Pressure  
Sea Level Pressure 30.09 in    
Wind  
Wind Speed 4 mph (ESE)    
Max Wind Speed 9 mph    
Max Gust Speed -    
Visibility 6 miles    
Events Rain    
Averages and records for this station are not official NWS values.
T = Trace of Precipitation, MM = Missing Value Source: NWS Daily Summary

Daily Weather History Graph

Daily Weather History Graph

Search for Another Location

Airport:

Trip Planner

Search our weather history database for the weather conditions in past years. The results will help you decide how hot, cold, wet, or windy it might be!

Date:

Astronomy

Jul. 30, 2013 Rise Set
Actual Time 5:56 AM CDT 8:19 PM CDT
Civil Twilight 5:25 AM CDT 8:50 PM CDT
Nautical Twilight 4:46 AM CDT 9:28 PM CDT
Astronomical Twilight 4:03 AM CDT 10:11 PM CDT
Moon 12:14 AM CDT (7/30) 2:39 PM CDT (7/30)
Length of Visible Light 15h 25m
Length of Day
14h 23m
Last Quarter, 41% of the Moon is Illuminated
Jul 30
Last Quarter
Aug 6
New
Aug 14
First Quarter
Aug 20
Full
Aug 28
Last Quarter

Hourly Weather History & Observations

Time (CDT) Temp. Dew Point Humidity Pressure Visibility Wind Dir Wind Speed Gust Speed Precip Events Conditions
12:15 AM 66.2 °F 55.8 °F 69% 30.15 in 10.0 mi East 3.5 mph - N/A   Overcast
12:35 AM 66.2 °F 55.6 °F 69% 30.14 in 10.0 mi ESE 4.6 mph - N/A   Overcast
12:55 AM 66.4 °F 55.6 °F 68% 30.14 in 10.0 mi ESE 4.6 mph - N/A   Overcast
1:15 AM 65.7 °F 56.1 °F 71% 30.14 in 10.0 mi ESE 3.5 mph - N/A   Overcast
1:35 AM 65.7 °F 56.3 °F 72% 30.13 in 10.0 mi ESE 4.6 mph - N/A   Mostly Cloudy
1:55 AM 65.3 °F 56.5 °F 73% 30.14 in 10.0 mi East 4.6 mph - N/A   Mostly Cloudy
2:15 AM 64.8 °F 56.7 °F 75% 30.13 in 10.0 mi ESE 4.6 mph - N/A   Mostly Cloudy
2:35 AM 64.6 °F 56.8 °F 76% 30.13 in 10.0 mi East 3.5 mph - N/A   Mostly Cloudy
2:55 AM 64.4 °F 56.8 °F 76% 30.13 in 10.0 mi ESE 3.5 mph - N/A   Overcast
3:15 AM 64.4 °F 57.0 °F 77% 30.13 in 10.0 mi ESE 3.5 mph - N/A   Overcast
3:35 AM 64.6 °F 56.5 °F 75% 30.12 in 10.0 mi SE 4.6 mph - N/A   Overcast
3:55 AM 65.3 °F 56.3 °F 73% 30.12 in 10.0 mi SE 4.6 mph - N/A   Overcast
4:15 AM 64.8 °F 56.3 °F 74% 30.12 in 10.0 mi SE 3.5 mph - N/A   Overcast
4:35 AM 64.8 °F 57.2 °F 76% 30.13 in 10.0 mi Calm Calm - N/A   Overcast
4:55 AM 63.7 °F 58.1 °F 82% 30.13 in 10.0 mi SSE 6.9 mph - N/A   Drizzle
5:15 AM 63.0 °F 59.4 °F 88% 30.14 in 10.0 mi SSE 6.9 mph - N/A Rain Rain
5:35 AM 62.6 °F 60.3 °F 92% 30.13 in 7.0 mi SE 4.6 mph - N/A Rain Rain
5:55 AM 62.6 °F 60.4 °F 93% 30.12 in 7.0 mi ESE 5.8 mph - N/A Rain Rain
6:15 AM 62.4 °F 60.8 °F 94% 30.12 in 10.0 mi ESE 5.8 mph - N/A Rain Light Rain
6:35 AM 62.4 °F 60.8 °F 94% 30.12 in 10.0 mi ESE 5.8 mph - N/A Rain Rain
6:55 AM 62.6 °F 61.0 °F 94% 30.12 in 10.0 mi ESE 4.6 mph - N/A Rain Light Rain
7:15 AM 62.8 °F 61.2 °F 94% 30.12 in 10.0 mi SE 3.5 mph - N/A   Overcast
7:35 AM 63.0 °F 61.3 °F 94% 30.13 in 10.0 mi ESE 3.5 mph - N/A   Drizzle
7:55 AM 62.8 °F 61.2 °F 94% 30.13 in 4.0 mi ESE 4.6 mph - N/A Rain Heavy Rain
8:15 AM 62.6 °F 61.2 °F 95% 30.13 in 4.0 mi ESE 5.8 mph - N/A Rain Rain
8:35 AM 62.6 °F 61.0 °F 94% 30.12 in - ESE 6.9 mph - N/A Rain Rain
8:55 AM 62.6 °F 61.0 °F 94% 30.12 in - ESE 8.1 mph - N/A   Unknown
9:15 AM 62.6 °F 61.0 °F 94% 30.11 in 10.0 mi ESE 6.9 mph - N/A Rain Light Rain
9:35 AM 62.8 °F 61.2 °F 94% 30.11 in 10.0 mi ESE 8.1 mph - N/A Rain Light Rain
9:55 AM 62.8 °F 61.2 °F 94% 30.11 in 7.0 mi ESE 8.1 mph - N/A Rain Rain
10:15 AM 62.8 °F 61.2 °F 94% 30.10 in 5.0 mi ESE 4.6 mph - N/A Rain Rain
10:35 AM 63.0 °F 61.5 °F 95% 30.09 in 4.0 mi ESE 9.2 mph - N/A Rain Rain
10:55 AM 63.1 °F 61.7 °F 95% 30.09 in 5.0 mi ESE 8.1 mph - N/A Rain Light Rain
11:15 AM 63.5 °F 61.9 °F 94% 30.09 in 5.0 mi ESE 9.2 mph - N/A Rain Rain
11:55 AM 64.4 °F 62.8 °F 94% 30.09 in 10.0 mi ESE 8.1 mph - 0.01 in Rain Light Rain
12:15 PM 64.9 °F 63.0 °F 93% 30.09 in 10.0 mi ESE 4.6 mph - N/A   Light Drizzle
12:35 PM 65.7 °F 63.3 °F 92% 30.08 in 10.0 mi ESE 9.2 mph - N/A   Overcast
1:15 PM 66.4 °F 63.1 °F 89% 30.07 in 10.0 mi ESE 6.9 mph - N/A   Overcast
1:35 PM 66.7 °F 63.1 °F 88% 30.06 in 10.0 mi ESE 8.1 mph - N/A   Overcast
1:55 PM 66.6 °F 63.0 °F 88% 30.06 in 10.0 mi ESE 4.6 mph - 0.01 in   Overcast
2:15 PM 66.9 °F 63.5 °F 89% 30.06 in 10.0 mi ESE 4.6 mph - N/A   Overcast
2:35 PM 67.1 °F 63.5 °F 88% 30.06 in 10.0 mi ESE 6.9 mph - N/A   Overcast
2:55 PM 67.1 °F 63.9 °F 89% 30.05 in 7.0 mi SE 4.6 mph - N/A   Overcast
3:15 PM 67.1 °F 63.9 °F 89% 30.05 in 7.0 mi ESE 4.6 mph - N/A   Overcast
3:35 PM 67.5 °F 64.2 °F 89% 30.05 in 7.0 mi ESE 5.8 mph - N/A   Overcast
3:55 PM 67.5 °F 64.6 °F 90% 30.04 in 5.0 mi ESE 4.6 mph - N/A   Overcast
4:15 PM 67.1 °F 65.1 °F 93% 30.04 in 2.0 mi ESE 4.6 mph - N/A   Overcast
4:35 PM 67.1 °F 65.3 °F 94% 30.05 in 1.8 mi Calm Calm - N/A   Overcast
4:55 PM 67.1 °F 65.7 °F 95% 30.05 in 1.2 mi Calm Calm - N/A Rain Light Rain
5:15 PM 67.3 °F 65.8 °F 95% 30.05 in 1.0 mi Calm Calm - N/A Rain Rain
5:35 PM 67.5 °F 66.2 °F 96% 30.05 in 1.2 mi East 3.5 mph - N/A   Overcast
5:55 PM 67.6 °F 66.2 °F 95% 30.05 in 1.5 mi Calm Calm - N/A   Light Drizzle
6:15 PM 68.0 °F 66.6 °F 95% 30.05 in 1.5 mi Calm Calm - N/A   Overcast
6:35 PM 68.0 °F 66.4 °F 95% 30.04 in 2.0 mi Calm Calm - N/A   Overcast
6:55 PM 68.0 °F 66.4 °F 95% 30.04 in 2.0 mi East 3.5 mph - 0.01 in   Overcast
7:15 PM 68.0 °F 66.6 °F 95% 30.04 in 2.5 mi Calm Calm - N/A   Overcast
7:35 PM 68.0 °F 66.6 °F 95% 30.03 in 1.8 mi East 3.5 mph - N/A   Overcast
7:55 PM 68.0 °F 66.6 °F 95% 30.04 in 1.0 mi Calm Calm - N/A   Overcast
8:15 PM 68.0 °F 66.6 °F 95% 30.04 in 1.0 mi Calm Calm - N/A   Overcast
8:35 PM 68.0 °F 66.6 °F 95% 30.04 in 1.5 mi Calm Calm - N/A Rain Light Rain
8:55 PM 68.0 °F 66.7 °F 96% 30.04 in 1.5 mi Calm Calm - 0.01 in   Drizzle
9:15 PM 68.0 °F 66.7 °F 96% 30.04 in 1.5 mi Calm Calm - N/A   Drizzle
9:35 PM 68.0 °F 66.9 °F 96% 30.05 in 2.0 mi Calm Calm - N/A   Light Drizzle
9:55 PM 68.0 °F 66.9 °F 96% 30.05 in 2.5 mi Calm Calm - N/A   Overcast
10:15 PM 68.0 °F 67.1 °F 97% 30.06 in 3.0 mi Calm Calm - N/A   Overcast
10:35 PM 68.0 °F 67.1 °F 97% 30.06 in 2.5 mi Calm Calm - N/A   Overcast
10:55 PM 68.0 °F 67.1 °F 97% 30.06 in 2.0 mi Calm Calm - 0.01 in   Overcast
11:15 PM 68.0 °F 67.1 °F 97% 30.06 in 1.8 mi Calm Calm - N/A   Overcast
11:35 PM 68.0 °F 67.1 °F 97% 30.05 in 1.0 mi Calm Calm - N/A   Drizzle
11:55 PM 68.0 °F 67.1 °F 97% 30.05 in 1.0 mi Calm Calm - 0.01 in   Drizzle